Powrót do katalogu

COSMOS 647

AktywnyMilitariaLEO
NORAD 7271·PAYLOAD·🇷🇺 Russia

Wystrzelony Apr 23, 1974 z Plesetsk Cosmodrome

Loading…

Następne Przeloty (najbliższe 24 godziny)

TLE

ŚwieżeSource: Space-Track

Epoka: Sep 14, 2026, 09:45 UTC

1 07271U 74024G   26257.40680421 -.00000032  00000-0 -10029-3 0  9993
2 07271  74.0169  53.9260 0038963  37.4535 351.8903 12.52877519396236

Śledź COSMOS 647 w czasie rzeczywistym z AllMySat

Download on the App Store